Tracking 33446 objects as of 10-Mar-2026
HD Live streaming from Space Station
objects crossing your sky now

STARLINK-35528

Track STARLINK-35528 now!
10-day predictions
STARLINK-35528 is classified as:


NORAD ID: 66094
Int'l Code: 2025-236J
Perigee: 481.5 km
Apogee: 483.2 km
Inclination: 53.2 °
Period: 94.1 minutes
Semi major axis: 6853 km
RCS: Unknown
Launch date: October 19, 2025
Source: United States (US)
Launch site: AIR FORCE WESTERN TEST RANGE (AFWTR)
Your satellite tracking list
Your tracking list is empty




NASA's NSSDC Master Catalog

Two Line Element Set (TLE):
1 66094U 25236J   26069.12750419  .00011399  00000-0  39649-3 0  9992
2 66094  53.1582 101.6955 0001257  89.0136 271.1009 15.30191155 23017
Source of the keplerian elements: AFSPC